Dewpoint
7 6 6 6 6 7 7 6 4 -0 -2 -3 -3 -4 -5 -5 -5 -4 -3 -0 4 3 4 3 2 3 5
8 6 7 7 7 7 7 6 1 -2 -3 -4 -4 -4 -4 -4 -4 -3 -1 1 1 4 4 3 4 3 3
9 7 8 8 7 7 7 3 -1 -2 -3 -3 -3 -3 -3 -3 -3 -0 -0 3 4 5 4 4 4 4 4
9 9 9 8 8 7 6 1 1 -2 -4 -3 -2 -2 -3 -3 -2 1 2 3 3 3 4 4 4 4 5
10 9 9 8 7 7 2 2 -1 -3 -3 -3 -2 -2 -3 -3 -2 -1 2 2 2 2 3 4 4 4 4
10 9 9 8 8 5 3 -1 -2 -3 -3 -2 -2 -2 -3 -3 -0 1 2 2 3 3 4 4 4 4 3
10 9 9 9 7 4 3 -2 -2 -2 -2 -2 -2 -3 -3 -2 -0 1 2 2 2 3 3 3 3 3 3
9 9 9 6 6 4 0 -1 -1 -1 -2 -2 -2 -3 -3 -2 -2 1 1 1 2 2 2 2 2 2 3
9 8 7 6 3 -1 -0 -1 -1 -1 -2 -2 -2 -3 -3 -2 -2 -0 1 1 1 2 2 2 2 2 2
8 6 6 5 3 1 -1 -1 -1 -2 -2 -2 -2 -3 -3 -4 -4 -2 -0 1 1 1 1 1 1 1 2
6 6 5 5 2 -1 -0 -1 -1 -2 -2 -3 -3 -3 -4 -9 -6 -2 -1 0 0 0 1 1 1 1 1
6 5 4 2 0 0 0 -0 -1 -2 -2 -3 -4 -6 -10 -16 -22 -21 -9 -3 -3 -1 -1 -0 -0 0 0
6 4 1 0 1 1 1 1 -1 -2 -3 -5 -7 -10 -16 -20 -22 -24 -25 -26 -25 -16 -4 -2 -2 -2 -2
4 2 1 2 2 2 1 0 -1 -3 -5 -8 -11 -14 -18 -21 -22 -24 -25 -24 -25 -26 -26 -25 -22 -16 -8
3 2 2 2 2 2 1 -1 -2 -3 -3 -4 -6 -10 -15 -19 -21 -22 -22 -23 -24 -25 -26 -26 -24 -23 -22
2 2 2 1 2 1 1 0 -2 -3 -3 -3 -4 -4 -7 -13 -19 -21 -22 -23 -23 -24 -24 -25 -25 -24 -24
1 1 1 1 1 1 0 -0 -2 -3 -4 -4 -4 -4 -4 -6 -14 -21 -21 -21 -21 -21 -22 -23 -23 -23 -24
Wind_Speed
24 22 22 23 23 23 22 21 20 20 21 22 22 22 23 22 21 20 19 19 17 16 12 9 6 8 7
30 26 26 26 25 25 25 22 21 21 22 24 25 23 21 20 19 18 17 18 17 18 15 13 11 11 11
32 31 28 30 27 26 24 21 21 23 23 25 24 22 21 18 17 17 15 17 17 17 17 15 13 11 15
34 34 30 30 29 26 23 22 23 24 25 24 21 20 19 18 15 16 16 18 19 21 17 17 17 16 18
38 37 34 33 33 27 26 24 24 23 23 23 20 20 19 17 14 14 16 17 18 20 20 15 13 17 13
43 41 38 35 32 27 25 23 24 21 21 20 20 18 17 16 13 11 13 16 15 12 12 14 17 19 19
44 40 41 36 33 26 22 25 22 22 21 19 18 16 16 14 13 13 14 15 14 16 16 15 18 19 21
45 40 40 33 26 21 21 24 22 21 19 18 17 16 15 14 13 14 15 16 16 15 14 15 16 17 18
41 39 35 24 22 23 25 22 21 19 17 18 17 14 15 14 13 14 15 17 18 18 17 17 19 20 21
46 33 29 24 27 25 22 21 19 15 16 16 16 14 10 14 15 14 15 16 17 18 17 18 17 17 17
34 32 30 31 30 28 23 20 17 16 14 13 13 13 14 11 10 12 13 14 15 16 16 18 17 18 18
36 38 35 33 31 25 20 16 15 14 16 18 19 18 18 17 15 14 17 18 17 17 18 17 17 19 20
42 38 34 30 28 25 22 20 19 19 19 19 19 19 18 17 15 14 15 17 18 19 20 20 20 21 23
39 36 34 34 31 29 26 23 22 20 19 18 18 18 17 17 17 15 15 13 11 15 19 20 21 20 20
38 38 38 37 36 32 28 27 26 20 17 17 17 17 16 16 16 13 14 16 17 16 16 17 16 17 18
45 43 42 40 37 32 32 30 28 23 20 17 15 15 15 15 14 13 14 14 15 14 12 13 13 18 17
42 38 39 40 39 38 36 34 32 28 24 21 19 16 16 15 13 10 10 11 11 12 9 9 9 13 14
Wind_Direction
250 246 249 249 249 251 261 268 268 274 280 284 286 288 287 286 280 276 272 253 241 248 246 257 248 252 224
248 247 253 258 250 254 259 265 267 276 282 287 290 293 293 287 279 276 264 244 240 241 232 244 248 244 248
248 248 252 255 250 249 261 264 271 277 284 286 292 293 290 285 274 260 257 237 233 226 237 237 238 243 243
244 247 254 253 251 253 252 261 264 276 282 288 284 284 284 282 265 245 236 234 236 234 237 221 234 259 224
242 247 251 249 249 248 249 252 262 271 279 281 278 277 275 279 272 263 232 239 243 239 240 237 242 226 246
247 245 254 250 242 241 246 253 263 272 278 276 275 273 276 274 268 254 245 241 235 237 231 223 220 226 240
250 250 258 250 237 232 245 256 263 274 279 274 269 268 267 265 260 248 247 240 235 237 240 235 237 240 240
245 260 255 232 229 234 239 248 257 266 267 262 260 259 260 261 256 249 244 243 239 240 236 234 233 233 235
248 250 230 224 218 229 236 247 256 263 264 258 250 249 253 257 259 245 237 239 239 239 239 239 239 242 243
238 220 211 212 221 232 233 245 249 252 255 250 253 249 250 249 242 235 236 235 237 239 239 238 235 238 240
217 210 216 224 218 225 232 239 249 254 254 251 245 239 233 241 236 230 229 231 235 236 239 238 239 240 241
216 218 215 210 213 221 231 244 254 260 251 242 242 242 243 239 240 240 241 242 241 238 235 235 238 243 248
217 217 213 212 213 216 220 230 237 238 234 233 238 242 248 251 258 252 249 250 247 245 243 239 238 239 245
219 213 209 210 214 219 220 224 228 231 229 229 234 241 245 253 251 247 248 244 246 246 250 252 249 246 244
218 211 213 213 214 217 219 217 225 223 222 227 236 242 246 248 251 250 245 251 254 256 256 253 251 248 246
219 216 216 217 215 216 220 220 222 220 217 221 230 238 246 248 250 245 247 251 256 259 254 257 251 251 248
232 222 220 219 215 216 219 217 216 217 219 224 229 236 246 252 246 242 241 244 248 255 256 257 256 245 246
Height
1529 1530 1530 1531 1532 1533 1533 1533 1533 1533 1532 1532 1530 1529 1526 1526 1524 1524 1526 1525 1526 1527 1529 1529 1530 1531 1531
1522 1523 1524 1526 1526 1526 1527 1527 1528 1527 1525 1525 1523 1522 1521 1520 1519 1518 1518 1520 1522 1523 1524 1525 1526 1528 1531
1514 1517 1517 1519 1518 1519 1522 1522 1522 1521 1519 1518 1517 1515 1514 1513 1513 1512 1512 1515 1517 1519 1521 1522 1523 1524 1524
1507 1509 1510 1512 1514 1513 1515 1516 1515 1514 1513 1513 1511 1510 1509 1508 1506 1506 1506 1508 1509 1511 1513 1515 1518 1519 1521
1498 1500 1501 1503 1504 1507 1508 1507 1508 1506 1505 1505 1505 1505 1504 1503 1502 1501 1501 1505 1507 1507 1509 1512 1514 1516 1518
1487 1489 1492 1494 1497 1499 1501 1503 1504 1501 1500 1500 1500 1500 1501 1500 1500 1499 1499 1501 1502 1504 1505 1508 1511 1513 1516
1478 1480 1483 1484 1487 1491 1494 1497 1497 1496 1495 1495 1496 1496 1496 1495 1496 1498 1498 1498 1498 1499 1501 1504 1507 1512 1513
1468 1471 1475 1475 1478 1483 1487 1489 1489 1488 1487 1487 1489 1491 1491 1492 1491 1493 1495 1495 1495 1496 1498 1499 1502 1505 1509
1454 1460 1462 1466 1471 1476 1478 1482 1482 1481 1481 1483 1483 1483 1485 1486 1489 1489 1489 1490 1491 1492 1491 1493 1497 1499 1503
1446 1448 1454 1458 1463 1470 1472 1475 1476 1473 1474 1477 1480 1481 1482 1481 1482 1483 1484 1485 1486 1486 1486 1487 1488 1493 1496
1433 1440 1444 1448 1456 1461 1464 1467 1468 1467 1467 1471 1474 1478 1479 1479 1480 1478 1479 1482 1481 1481 1483 1484 1484 1487 1489
1427 1432 1434 1439 1447 1453 1458 1460 1461 1462 1463 1464 1467 1472 1473 1472 1474 1473 1475 1477 1476 1476 1477 1478 1480 1483 1484
1417 1422 1429 1437 1440 1445 1449 1450 1453 1454 1456 1457 1461 1464 1468 1469 1469 1471 1472 1472 1472 1472 1472 1472 1473 1474 1477
1409 1416 1422 1427 1431 1438 1439 1442 1446 1449 1451 1452 1455 1457 1459 1462 1462 1465 1466 1466 1464 1465 1467 1468 1470 1470 1471
1403 1408 1415 1418 1423 1428 1432 1434 1438 1442 1446 1449 1453 1453 1453 1455 1457 1458 1459 1461 1460 1459 1461 1462 1463 1464 1464
1393 1396 1402 1410 1414 1419 1426 1428 1433 1437 1440 1444 1446 1448 1450 1451 1450 1450 1452 1455 1456 1456 1454 1456 1457 1459 1459
1389 1388 1395 1399 1402 1407 1415 1421 1425 1429 1433 1438 1440 1443 1444 1447 1446 1445 1445 1449 1451 1454 1450 1451 1453 1454 1453